Regional Weather Roundup
Issued by NWS

Home | Current Version | Previous Version | Text Only | Print | Product List | Glossary Off
Versions: 1 2 3 4 5 6 7 8 9 10 11 12 13 14 15 16 17 18 19 20 21 22 23 24 25 26 27 28 29 30 31 32 33 34 35 36 37 38 39 40 41 42 43 44 45 46 47 48 49 50

000
ASUS45 KBOI 310810
RWRID
WEATHER ROUNDUP FOR IDAHO
NATIONAL WEATHER SERVICE BOISE ID
100 AM MST SAT JAN 31 2015

NOTE: "FAIR" INDICATES FEW OR NO CLOUDS BELOW 12000 FEET
WITH NO SIGNIFICANT WEATHER AND/OR OBSTRUCTIONS TO VISIBILITY

IDZ012-014-310900-
SOUTHWEST IDAHO


CITY           SKY/WX    TMP DP  RH WIND       PRES   REMARKS
BOISE          CLEAR     29  26  89 SE5       30.14F WCI  24
CALDWELL       CLEAR     28  21  74 CALM      30.17F
MOUNTAIN HOME  CLEAR     28  27  94 SW6       30.14F WCI  22
$$

IDZ016-017-310900-
SOUTHCENTRAL IDAHO


CITY           SKY/WX    TMP DP  RH WIND       PRES   REMARKS
BURLEY         CLOUDY    34  31  88 W6        30.12S WCI  29
JEROME         PTCLDY    30  28  92 S6        30.13S WCI  24
TWIN FALLS     CLOUDY    35  30  82 S7        30.13S WCI  29
$$

IDZ019>023-310900-
SOUTHEAST IDAHO


CITY           SKY/WX    TMP DP  RH WIND       PRES   REMARKS
IDAHO FALLS    FOG       30  30 100 SW12      30.07F VSB 1/4 WCI  20
POCATELLO      CLOUDY    33  31  92 SW10      30.10S WCI  25
REXBURG        PTCLDY    19  16  88 CALM      30.06F
$$

IDZ006-010-011-018-031-032-310900-
CENTRAL IDAHO MOUNTAINS


CITY           SKY/WX    TMP DP  RH WIND       PRES   REMARKS
MCCALL         CLEAR     18  15  88 CALM      30.11F
HAILEY         CLEAR     27  16  63 NW12      30.09S WCI  16
STANLEY          N/A      1  -5  75 CALM      30.17S
SALMON         CLOUDY    27  21  80 CALM      30.23S
CHALLIS        CLOUDY    25  19  78 SW5       30.20S WCI  19
$$

IDZ002-004-006-007-026-310900-
NORTHERN IDAHO


CITY           SKY/WX    TMP DP  RH WIND       PRES   REMARKS
LEWISTON       CLOUDY    36  33  89 CALM      30.27F
LOWELL           N/A     34  30  85 CALM      30.29F
COEUR D`ALENE  CLOUDY    30  28  93 SW6       30.21F WCI  24
MULLAN PASS    MOCLDY    25  20  81 NW8       30.07S WCI  16
$$


USA.gov is the U.S. government's official web portal to all federal, state and local government web resources and services.